CW7731 Weather Reports


time (UTC)temp
C
wind
direction
speed
KPH
gust
KPH
rain 1hr
cm
rain 24hr
cm
rain mn
cm
humidity
%
barometer
mb
20260502152117 23 187 1.6 24.1 0.00 0.00 0.00 34 1019.1
20260502151139 23 186 3.2 20.9 0.00 0.00 0.00 33 1019.1
20260502150131 23 190 4.8 19.3 0.00 0.00 0.00 33 1019.1
20260502130131 23 188 1.6 32.2 0.00 0.00 0.00 31 1020.5
20260502123122 23 232 1.6 33.8 0.00 0.00 0.00 31 1020.8
20260502122139 23 172 3.2 32.2 0.00 0.00 0.00 33 1020.9
20260502121113 23 201 9.7 25.7 0.00 0.00 0.00 32 1021.1
20260502120131 23 195 6.4 29.0 0.00 0.00 0.00 32 1021.2
20260502115138 23 191 3.2 29.0 0.00 0.00 0.00 32 1021.4
20260502114125 23 197 6.4 22.5 0.00 0.00 0.00 32 1021.4
20260502113112 23 201 1.6 20.9 0.00 0.00 0.00 31 1021.6
20260502112105 23 196 4.8 20.9 0.00 0.00 0.00 32 1021.7
20260502111101 23 223 1.6 20.9 0.00 0.00 0.00 33 1021.9
20260502110134 22 211 3.2 22.5 0.00 0.00 0.00 33 1022.0
20260502105120 22 202 0.0 19.3 0.00 0.00 0.00 34 1022.1
20260502104124 22 217 3.2 17.7 0.00 0.00 0.00 33 1022.2
20260502103132 22 193 1.6 16.1 0.00 0.00 0.00 33 1022.2
20260502102103 22 216 0.0 24.1 0.00 0.00 0.00 33 1022.5
20260502101120 22 255 1.6 24.1 0.00 0.00 0.00 32 1022.6
20260502100136 22 202 4.8 20.9 0.00 0.00 0.00 33 1022.8
20260502091127 21 181 1.6 11.3 0.00 0.00 0.00 35 1023.1
20260502090118 21 171 0.0 8.0 0.00 0.00 0.00 38 1023.3
20260502071108 17 329 0.0 0.0 0.00 0.00 0.00 42 1024.0
20260502070116 17 329 0.0 0.0 0.00 0.00 0.00 44 1024.1
20260502065107 17 329 0.0 0.0 0.00 0.00 0.00 46 1024.2
20260502064146 15 329 0.0 0.0 0.00 0.00 0.00 52 1024.3
20260502063108 14 329 0.0 0.0 0.00 0.00 0.00 55 1024.4
20260502062108 13 330 0.0 1.6 0.00 0.00 0.00 57 1024.4
20260502061113 13 315 0.0 0.0 0.00 0.00 0.00 57 1024.4
20260502060143 12 315 0.0 0.0 0.00 0.00 0.00 58 1024.4
20260502055134 12 316 0.0 0.0 0.00 0.00 0.00 61 1024.6
20260502054126 11 316 0.0 0.0 0.00 0.00 0.00 62 1024.6
20260502045101 10 306 0.0 0.0 0.00 0.00 0.00 64 1024.4
20260502044118 10 305 0.0 0.0 0.00 0.00 0.00 64 1024.4
20260502043137 10 304 0.0 0.0 0.00 0.00 0.00 65 1024.4
20260502042146 10 303 0.0 0.0 0.00 0.00 0.00 66 1024.4
20260502041127 10 297 0.0 0.0 0.00 0.00 0.00 66 1024.4
20260502040144 10 295 0.0 0.0 0.00 0.00 0.00 66 1024.4
20260502035110 10 295 0.0 0.0 0.00 0.00 0.00 66 1024.4
20260502034141 9 295 0.0 0.0 0.00 0.00 0.00 65 1024.3
20260502033117 10 290 0.0 0.0 0.00 0.00 0.00 65 1024.3
20260502032105 10 290 0.0 0.0 0.00 0.00 0.00 65 1024.3
20260502031103 10 290 0.0 0.0 0.00 0.00 0.00 64 1024.3
20260502030136 10 286 0.0 0.0 0.00 0.00 0.00 64 1024.3
20260502025143 10 286 0.0 0.0 0.00 0.00 0.00 63 1024.3
20260502024130 10 302 0.0 1.6 0.00 0.00 0.00 62 1024.3
20260502023112 10 318 0.0 0.0 0.00 0.00 0.00 63 1024.3
20260502022142 10 301 0.0 3.2 0.00 0.00 0.00 62 1024.4
20260502021134 10 316 0.0 9.7 0.00 0.00 0.00 62 1024.4
20260502015144 11 320 0.0 11.3 0.00 0.00 0.00 61 1024.3
20260502014101 11 321 0.0 6.4 0.00 0.00 0.00 60 1024.3
20260502013120 11 326 0.0 6.4 0.00 0.00 0.00 61 1024.3
20260502012139 10 336 0.0 1.6 0.00 0.00 0.00 62 1024.3
20260502011128 10 332 0.0 1.6 0.00 0.00 0.00 63 1024.3
20260502010125 10 310 0.0 1.6 0.00 0.00 0.00 65 1024.4
20260502005141 10 311 0.0 6.4 0.00 0.00 0.00 64 1024.4